#timestamp,LO_Frequency,Hit,StdDev 
1700434815.6,286046997.0,P
1700434835.5,286046999.6,N
1700434855.3,286046996.5,N
1700434875.1,286046997.8,N
1700434895.9,286046997.2,N
1700434915.7,286046997.3,N
1700434935.6,286046996.5,N
1700434955.4,286046996.6,N
1700434975.2,286046996.7,N
1700434995.1,286046996.5,N
1700434996.0,286046996.5,N
1700435015.8,286046999.1,N
1700435035.6,286046998.6,N
1700435055.5,286046999.0,N
1700435075.3,286046999.5,N
1700435095.2,286046998.4,N
1700435115.9,286046998.3,N
1700435135.7,286046998.8,N
1700435155.6,286046999.3,N
1700435175.4,286046996.5,N
1700435195.2,286046997.3,N
1700435215.1,286046996.6,N
1700435216.0,286046996.6,N
1700435235.8,286046999.6,N
1700435255.7,286046999.6,N
1700435275.5,286046999.0,N
1700435295.3,286046996.6,N
1700435315.2,286046996.6,N
1700435335.0,286046997.1,N
1700435335.9,286046997.1,N
1700435355.8,286046996.9,N
1700435375.6,286046999.3,N
1700435395.4,286046997.1,N
1700435415.3,286046997.5,N
1700435435.1,286046994.9,Y
1700435455.8,286046998.8,P
1700435475.7,286046998.6,N
1700435495.5,286047001.1,N
1700435515.4,286046998.3,N
1700435535.2,286047000.8,N
1700435555.0,286047000.8,N
1700435555.9,286047000.8,N
1700435575.8,286046998.5,N
1700435595.6,286047001.2,N
1700435615.4,286047000.7,N
1700435635.3,286047002.4,N
1700435655.1,286047002.3,N
1700435675.9,286047002.3,N
1700435695.7,286047002.5,N
1700435715.5,286046999.8,N
1700435735.4,286047000.5,N
1700435755.2,286046998.7,N
1700435775.0,286047001.0,N
1700435775.9,286047001.0,N
1700435795.8,286047001.1,N
1700435815.6,286047000.8,N
1700435835.5,286046998.5,N
1700435855.3,286046999.5,N
1700435875.1,286046998.6,N
1700435895.9,286046998.5,N
1700435915.7,286047000.3,N
1700435935.6,286046999.9,N
1700435955.4,286047001.1,N
1700435975.2,286046999.9,N
1700435995.1,286046998.2,N
1700435996.0,286046998.2,N
1700436015.8,286046998.6,N
1700436035.7,286046996.8,N
1700436055.5,286046999.5,N
1700436075.3,286046997.1,N
1700436095.2,286046999.1,N
1700436115.9,286046999.4,N
1700436135.7,286046997.1,N
1700436155.6,286046997.1,N
1700436175.4,286046996.9,N
1700436195.3,286046999.4,N
1700436215.1,286046999.0,N
1700436216.0,286046999.0,N
1700436235.8,286046998.3,N
1700436255.7,286046998.3,N
1700436275.5,286046999.2,N
1700436295.3,286046994.9,Y
1700436315.2,286046999.1,P
1700436335.0,286046999.1,P
1700436335.9,286046999.1,P
1700436355.8,286046999.4,Y
1700436375.6,286047001.2,P
1700436395.4,286047000.7,N
1700436415.3,286047000.8,N
1700436435.1,286047000.3,N
1700436455.9,286047000.6,N
1700436475.7,286046998.1,N
1700436495.5,286047001.1,N
1700436515.4,286046998.6,N
1700436535.2,286046999.8,N
1700436555.0,286047000.1,N
1700436555.9,286047000.1,N
1700436575.8,286047002.6,N
1700436595.6,286047002.7,N
1700436615.5,286046999.7,N
1700436635.3,286046999.9,N
1700436655.1,286047000.2,N
1700436675.9,286046998.5,N
1700436695.7,286046998.3,N
1700436715.5,286047000.8,N
1700436735.4,286046998.1,N
1700436755.2,286047000.2,N
1700436775.1,286047002.1,N
1700436776.0,286047002.1,N
1700436795.8,286047000.1,N
1700436815.6,286046999.9,N
1700436835.5,286047002.8,N
1700436855.3,286046999.9,N
1700436875.1,286047002.0,N
1700436895.9,286047001.3,N
1700436915.7,286047003.9,N
1700436935.6,286047004.1,N
1700436955.4,286047004.2,N
1700436975.2,286047003.6,N
1700436995.1,286047003.5,N
1700436996.0,286047003.5,N
1700437015.8,286047003.5,N
1700437035.7,286047004.7,N
1700437055.5,286047006.9,Y
1700437075.4,286047005.2,P
1700437095.2,286047004.6,N
1700437115.0,286047005.7,P
1700437115.9,286047005.7,Y
1700437135.8,286047002.8,P
1700437155.6,286047000.6,N
1700437175.5,286047000.8,N
1700437195.3,286047000.3,N
1700437215.1,286047000.8,N
1700437235.9,286046998.5,N
1700437255.7,286046999.1,N
1700437275.6,286046996.5,N
1700437295.4,286046997.3,N
1700437315.2,286046998.9,N
1700437335.1,286046998.8,N
1700437336.0,286046998.8,N
1700437355.8,286047001.1,N
1700437375.7,286047000.3,N
1700437395.5,286047000.2,N
1700437415.3,286047000.6,N
1700437435.2,286046999.7,N
1700437455.0,286047002.2,N
1700437455.9,286047002.2,N
1700437475.8,286047002.0,N
1700437495.6,286047001.9,N
1700437515.4,286047002.0,N
1700437535.3,286047002.5,N
1700437555.1,286047000.3,N
1700437575.8,286047002.7,N
1700437595.7,286047002.8,N
1700437615.5,286047001.6,N
1700437635.4,286047002.1,N
1700437655.2,286046999.7,N
1700437675.0,286047002.4,N
1700437675.9,286047002.4,N
1700437695.8,286047002.4,N
1700437715.6,286046999.7,N
1700437735.4,286046999.7,N
1700437755.3,286046999.9,N
1700437775.1,286047000.2,N
1700437795.9,286047001.1,N
1700437815.7,286047001.1,N
1700437835.5,286046998.2,N
1700437855.4,286047000.8,N
1700437875.2,286047000.2,N
1700437895.0,286047000.4,N
1700437895.9,286047000.4,N
1700437915.8,286046999.8,N
1700437935.6,286047002.1,N
1700437955.5,286047002.5,N
1700437975.3,286047002.4,N
1700437995.1,286047000.2,N
1700438015.9,286047002.8,N
1700438035.7,286047001.8,N
1700438055.6,286047002.0,N
1700438075.4,286047001.4,N
1700438095.2,286047004.4,Y
1700438115.1,286047002.4,P
1700438116.0,286047002.4,P
1700438135.8,286047002.8,P
1700438155.6,286047002.5,Y
1700438175.5,286046998.5,P
1700438195.3,286046998.2,N
1700438215.2,286046999.3,N
1700438235.9,286046998.5,N
1700438255.7,286047000.7,N
1700438275.6,286046998.9,N
1700438295.4,286046998.9,N
1700438315.2,286046998.3,N
1700438335.1,286047001.1,N
1700438336.0,286047001.1,N
1700438355.8,286046999.1,N
1700438375.7,286047001.1,N
1700438395.5,286047000.0,N
